| time (UTC) | temp C | wind direction | speed KPH | gust KPH | rain 1hr cm | rain 24hr cm | rain mn cm | humidity % | barometer mb |
| 20260510171056 | 15 | 154 | 3.2 | 0.0 | 0.00 | 0.00 | 0.00 | 95 | 1012.2 |
| 20260510170555 | 15 | 180 | 3.2 | 0.0 | 0.00 | 0.00 | 0.00 | 96 | 1012.2 |
| 20260510170057 | 15 | 163 | 1.6 | 0.0 | 0.00 | 0.00 | 0.00 | 96 | 1012.2 |
| 20260510165553 | 15 | 166 | 1.6 | 0.0 | 0.00 | 0.00 | 0.00 | 96 | 1012.1 |
| 20260510165055 | 15 | 242 | 1.6 | 0.0 | 0.00 | 0.00 | 0.00 | 96 | 1012.1 |
| 20260510164552 | 14 | 190 | 1.6 | 0.0 | 0.00 | 0.00 | 0.00 | 96 | 1012.1 |
| 20260510164050 | 14 | 126 | 1.6 | 0.0 | 0.00 | 0.00 | 0.00 | 96 | 1012.2 |
| 20260510163550 | 13 | 201 | 1.6 | 0.0 | 0.00 | 0.00 | 0.00 | 96 | 1012.2 |
| 20260510163051 | 13 | 139 | 1.6 | 0.0 | 0.00 | 0.00 | 0.00 | 96 | 1012.2 |
| 20260510162546 | 13 | 173 | 1.6 | 0.0 | 0.00 | 0.00 | 0.00 | 96 | 1012.3 |
| 20260510162045 | 13 | 186 | 3.2 | 0.0 | 0.00 | 0.00 | 0.00 | 96 | 1012.3 |
| 20260510161545 | 13 | 209 | 3.2 | 0.0 | 0.00 | 0.00 | 0.00 | 96 | 1012.3 |
| 20260510161045 | 13 | 190 | 3.2 | 0.0 | 0.00 | 0.00 | 0.00 | 96 | 1012.1 |
| 20260510160545 | 13 | 165 | 3.2 | 0.0 | 0.00 | 0.00 | 0.00 | 96 | 1012.1 |
| 20260510160050 | 13 | 192 | 3.2 | 0.0 | 0.00 | 0.00 | 0.00 | 96 | 1012.1 |
| 20260510155544 | 13 | 165 | 1.6 | 0.0 | 0.00 | 0.00 | 0.00 | 96 | 1012.0 |
| 20260510155047 | 13 | 185 | 0.0 | 0.0 | 0.00 | 0.00 | 0.00 | 96 | 1012.0 |
| 20260510154546 | 13 | 109 | 1.6 | 0.0 | 0.00 | 0.00 | 0.00 | 96 | 1012.0 |
| 20260510154042 | 13 | 10 | 1.6 | 0.0 | 0.00 | 0.00 | 0.00 | 96 | 1012.0 |
| 20260510153541 | 12 | 156 | 0.0 | 0.0 | 0.00 | 0.00 | 0.00 | 96 | 1012.0 |
| 20260510153040 | 12 | 63 | 0.0 | 0.0 | 0.00 | 0.00 | 0.00 | 96 | 1012.0 |
| 20260510152540 | 12 | 63 | 3.2 | 0.0 | 0.00 | 0.00 | 0.00 | 96 | 1011.9 |
| 20260510152040 | 12 | 350 | 3.2 | 0.0 | 0.00 | 0.00 | 0.00 | 96 | 1011.9 |
| 20260510151539 | 12 | 360 | 1.6 | 0.0 | 0.00 | 0.00 | 0.00 | 96 | 1011.9 |
| 20260510151039 | 12 | 13 | 1.6 | 0.0 | 0.00 | 0.00 | 0.00 | 96 | 1011.8 |
| 20260510150539 | 12 | 347 | 1.6 | 0.0 | 0.00 | 0.00 | 0.00 | 96 | 1011.8 |
| 20260510150043 | 12 | 360 | 1.6 | 0.0 | 0.00 | 0.00 | 0.00 | 96 | 1011.8 |
| 20260510145544 | 12 | 90 | 1.6 | 0.0 | 0.00 | 0.00 | 0.00 | 96 | 1011.7 |
| 20260510145041 | 12 | 90 | 3.2 | 0.0 | 0.00 | 0.00 | 0.00 | 96 | 1011.7 |
| 20260510144538 | 12 | 342 | 1.6 | 0.0 | 0.00 | 0.00 | 0.00 | 96 | 1011.7 |
| 20260510144038 | 12 | 74 | 1.6 | 0.0 | 0.00 | 0.00 | 0.00 | 96 | 1011.5 |
| 20260510143537 | 12 | 22 | 1.6 | 0.0 | 0.00 | 0.00 | 0.00 | 96 | 1011.5 |
| 20260510143037 | 12 | 11 | 1.6 | 0.0 | 0.00 | 0.00 | 0.00 | 96 | 1011.5 |
| 20260510142537 | 12 | 67 | 1.6 | 0.0 | 0.00 | 0.00 | 0.00 | 96 | 1011.6 |
| 20260510142037 | 12 | 56 | 1.6 | 0.0 | 0.00 | 0.00 | 0.00 | 96 | 1011.6 |
| 20260510141537 | 12 | 355 | 3.2 | 0.0 | 0.00 | 0.00 | 0.00 | 96 | 1011.6 |
| 20260510141036 | 12 | 82 | 3.2 | 0.0 | 0.00 | 0.00 | 0.00 | 96 | 1011.4 |
| 20260510140536 | 12 | 126 | 3.2 | 0.0 | 0.00 | 0.00 | 0.00 | 96 | 1011.4 |
| 20260510140038 | 12 | 84 | 1.6 | 0.0 | 0.00 | 0.00 | 0.00 | 96 | 1011.4 |
| 20260510135537 | 12 | 45 | 1.6 | 0.0 | 0.00 | 0.00 | 0.00 | 96 | 1011.1 |
| 20260510135037 | 12 | 78 | 3.2 | 0.0 | 0.00 | 0.00 | 0.00 | 96 | 1011.1 |
| 20260510134537 | 12 | 76 | 1.6 | 0.0 | 0.00 | 0.00 | 0.00 | 96 | 1011.1 |
| 20260510134039 | 12 | 90 | 1.6 | 0.0 | 0.00 | 0.00 | 0.00 | 96 | 1011.0 |
| 20260510133539 | 12 | 46 | 4.8 | 0.0 | 0.00 | 0.00 | 0.00 | 96 | 1011.0 |
| 20260510133036 | 12 | 89 | 4.8 | 0.0 | 0.00 | 0.00 | 0.00 | 96 | 1011.0 |
| 20260510132535 | 12 | 76 | 3.2 | 0.0 | 0.00 | 0.00 | 0.00 | 95 | 1011.0 |
| 20260510132038 | 12 | 57 | 3.2 | 0.0 | 0.00 | 0.00 | 0.00 | 96 | 1011.0 |
| 20260510131534 | 12 | 64 | 3.2 | 0.0 | 0.00 | 0.00 | 0.00 | 96 | 1011.0 |
| 20260510131034 | 12 | 74 | 3.2 | 0.0 | 0.00 | 0.00 | 0.00 | 96 | 1010.8 |
| 20260510130534 | 12 | 91 | 3.2 | 0.0 | 0.00 | 0.00 | 0.00 | 96 | 1010.8 |
| 20260510130034 | 12 | 99 | 3.2 | 0.0 | 0.00 | 0.00 | 0.00 | 96 | 1010.8 |
| 20260510125533 | 12 | 55 | 3.2 | 0.0 | 0.00 | 0.00 | 0.00 | 96 | 1010.7 |
| 20260510125035 | 12 | 71 | 1.6 | 0.0 | 0.00 | 0.00 | 0.00 | 96 | 1010.7 |
| 20260510124534 | 12 | 19 | 1.6 | 0.0 | 0.00 | 0.00 | 0.00 | 96 | 1010.7 |
| 20260510124033 | 12 | 27 | 1.6 | 0.0 | 0.00 | 0.00 | 0.00 | 96 | 1010.8 |
| 20260510123533 | 12 | 55 | 1.6 | 0.0 | 0.00 | 0.00 | 0.00 | 96 | 1010.8 |
| 20260510123035 | 12 | 55 | 1.6 | 0.0 | 0.00 | 0.00 | 0.00 | 96 | 1010.8 |
| 20260510122532 | 12 | 51 | 1.6 | 0.0 | 0.00 | 0.00 | 0.00 | 96 | 1010.8 |
| 20260510122034 | 12 | 157 | 1.6 | 0.0 | 0.00 | 0.00 | 0.00 | 95 | 1010.8 |
| 20260510121533 | 12 | 63 | 0.0 | 0.0 | 0.00 | 0.00 | 0.00 | 96 | 1010.8 |
| 20260510121033 | 12 | 99 | 1.6 | 0.0 | 0.00 | 0.00 | 0.00 | 95 | 1010.8 |
| 20260510120533 | 12 | 99 | 1.6 | 0.0 | 0.00 | 0.00 | 0.00 | 95 | 1010.8 |
| 20260510120032 | 12 | 109 | 1.6 | 0.0 | 0.00 | 0.00 | 0.00 | 96 | 1010.8 |
| 20260510115531 | 11 | 81 | 1.6 | 0.0 | 0.00 | 0.00 | 0.00 | 96 | 1010.8 |
| 20260510115031 | 11 | 75 | 1.6 | 0.0 | 0.00 | 0.00 | 0.00 | 95 | 1010.8 |
| 20260510114537 | 11 | 65 | 1.6 | 0.0 | 0.00 | 0.00 | 0.00 | 95 | 1010.8 |
| 20260510114031 | 11 | 79 | 1.6 | 0.0 | 0.00 | 0.00 | 0.00 | 95 | 1010.7 |
| 20260510113532 | 11 | 29 | 1.6 | 0.0 | 0.00 | 0.00 | 0.00 | 95 | 1010.7 |
| 20260510113035 | 11 | 360 | 3.2 | 0.0 | 0.00 | 0.00 | 0.00 | 95 | 1010.7 |
| 20260510112530 | 11 | 44 | 1.6 | 0.0 | 0.00 | 0.00 | 0.00 | 95 | 1010.7 |
| 20260510112029 | 12 | 88 | 0.0 | 0.0 | 0.00 | 0.00 | 0.00 | 95 | 1010.7 |
| 20260510111530 | 11 | 30 | 1.6 | 0.0 | 0.00 | 0.00 | 0.00 | 95 | 1010.7 |
| 20260510111029 | 11 | 355 | 4.8 | 0.0 | 0.00 | 0.00 | 0.00 | 95 | 1010.7 |
| 20260510110528 | 12 | 5 | 3.2 | 0.0 | 0.00 | 0.00 | 0.00 | 95 | 1010.7 |
| 20260510110028 | 12 | 46 | 1.6 | 0.0 | 0.00 | 0.00 | 0.00 | 95 | 1010.7 |
| 20260510105528 | 12 | 25 | 3.2 | 0.0 | 0.00 | 0.00 | 0.00 | 95 | 1010.7 |
| 20260510105027 | 12 | 43 | 3.2 | 0.0 | 0.00 | 0.00 | 0.00 | 95 | 1010.7 |
| 20260510104533 | 12 | 25 | 3.2 | 0.0 | 0.00 | 0.00 | 0.00 | 95 | 1010.7 |
| 20260510104026 | 12 | 55 | 3.2 | 0.0 | 0.00 | 0.00 | 0.00 | 95 | 1010.7 |
| 20260510103528 | 12 | 51 | 3.2 | 0.0 | 0.00 | 0.00 | 0.00 | 95 | 1010.7 |
| 20260510103028 | 12 | 65 | 1.6 | 0.0 | 0.00 | 0.00 | 0.00 | 95 | 1010.7 |
| 20260510102527 | 12 | 133 | 0.0 | 0.0 | 0.00 | 0.00 | 0.00 | 95 | 1010.6 |
| 20260510102027 | 12 | 133 | 0.0 | 0.0 | 0.00 | 0.00 | 0.00 | 95 | 1010.6 |
| 20260510101526 | 12 | 133 | 0.0 | 0.0 | 0.00 | 0.00 | 0.00 | 95 | 1010.6 |
| 20260510101026 | 12 | 132 | 0.0 | 0.0 | 0.00 | 0.00 | 0.00 | 95 | 1010.9 |
| 20260510100525 | 12 | 257 | 0.0 | 0.0 | 0.00 | 0.00 | 0.00 | 95 | 1010.9 |
| 20260510100024 | 12 | 257 | 0.0 | 0.0 | 0.00 | 0.00 | 0.00 | 95 | 1010.9 |
| 20260510095524 | 12 | 123 | 0.0 | 0.0 | 0.00 | 0.00 | 0.00 | 95 | 1010.9 |
| 20260510095023 | 12 | 123 | 0.0 | 0.0 | 0.00 | 0.00 | 0.00 | 95 | 1010.9 |
| 20260510094534 | 12 | 123 | 0.0 | 0.0 | 0.00 | 0.00 | 0.00 | 95 | 1010.9 |
| 20260510094023 | 12 | 123 | 0.0 | 0.0 | 0.00 | 0.00 | 0.00 | 95 | 1010.9 |
| 20260510093523 | 12 | 123 | 0.0 | 0.0 | 0.00 | 0.00 | 0.00 | 95 | 1010.9 |
| 20260510093023 | 12 | 123 | 0.0 | 0.0 | 0.00 | 0.00 | 0.00 | 95 | 1010.9 |
| 20260510092523 | 12 | 123 | 0.0 | 0.0 | 0.00 | 0.00 | 0.00 | 95 | 1010.9 |
| 20260510092022 | 12 | 123 | 0.0 | 0.0 | 0.00 | 0.00 | 0.00 | 95 | 1010.9 |
| 20260510091523 | 12 | 123 | 1.6 | 0.0 | 0.00 | 0.00 | 0.00 | 95 | 1010.9 |
| 20260510091023 | 12 | 123 | 0.0 | 0.0 | 0.00 | 0.00 | 0.00 | 95 | 1010.9 |
| 20260510090522 | 12 | 123 | 0.0 | 0.0 | 0.00 | 0.00 | 0.00 | 95 | 1010.9 |
| 20260510090022 | 12 | 25 | 0.0 | 0.0 | 0.00 | 0.00 | 0.00 | 95 | 1010.9 |
| 20260510085521 | 12 | 25 | 0.0 | 0.0 | 0.00 | 0.00 | 0.00 | 95 | 1010.9 |
| 20260510085021 | 12 | 126 | 1.6 | 0.0 | 0.00 | 0.00 | 0.00 | 95 | 1010.9 |
| 20260510084521 | 12 | 126 | 1.6 | 0.0 | 0.00 | 0.00 | 0.00 | 95 | 1010.9 |
| 20260510084022 | 12 | 121 | 0.0 | 0.0 | 0.00 | 0.00 | 0.00 | 95 | 1010.9 |
| 20260510083521 | 12 | 121 | 0.0 | 0.0 | 0.00 | 0.00 | 0.00 | 95 | 1010.9 |
| 20260510083021 | 12 | 134 | 0.0 | 0.0 | 0.00 | 0.00 | 0.00 | 95 | 1010.9 |
| 20260510082521 | 12 | 134 | 0.0 | 0.0 | 0.00 | 0.00 | 0.00 | 95 | 1011.0 |
| 20260510082024 | 12 | 134 | 1.6 | 0.0 | 0.00 | 0.00 | 0.00 | 95 | 1011.0 |
| 20260510081533 | 12 | 136 | 1.6 | 0.0 | 0.00 | 0.00 | 0.00 | 95 | 1011.0 |
| 20260510081019 | 12 | 134 | 1.6 | 0.0 | 0.00 | 0.00 | 0.00 | 95 | 1011.3 |
| 20260510080518 | 12 | 119 | 0.0 | 0.0 | 0.00 | 0.00 | 0.00 | 95 | 1011.3 |
| 20260510080025 | 12 | 119 | 0.0 | 0.0 | 0.00 | 0.00 | 0.00 | 95 | 1011.3 |
| 20260510075521 | 12 | 119 | 1.6 | 0.0 | 0.00 | 0.00 | 0.00 | 95 | 1011.4 |
| 20260510075018 | 12 | 119 | 1.6 | 0.0 | 0.00 | 0.00 | 0.00 | 95 | 1011.4 |
| 20260510074518 | 12 | 119 | 1.6 | 0.0 | 0.00 | 0.00 | 0.00 | 95 | 1011.4 |
| 20260510074017 | 12 | 98 | 1.6 | 0.0 | 0.00 | 0.00 | 0.00 | 95 | 1011.6 |
| 20260510073517 | 12 | 141 | 1.6 | 0.0 | 0.00 | 0.00 | 0.00 | 95 | 1011.6 |
| 20260510073017 | 12 | 123 | 1.6 | 0.0 | 0.00 | 0.00 | 0.00 | 95 | 1011.6 |
| 20260510072517 | 12 | 150 | 1.6 | 0.0 | 0.00 | 0.00 | 0.00 | 95 | 1011.6 |
| 20260510072017 | 12 | 146 | 1.6 | 0.0 | 0.00 | 0.00 | 0.00 | 95 | 1011.6 |
| 20260510071516 | 12 | 141 | 1.6 | 0.0 | 0.00 | 0.00 | 0.00 | 95 | 1011.6 |
| 20260510071015 | 12 | 141 | 1.6 | 0.0 | 0.00 | 0.00 | 0.00 | 95 | 1011.6 |
| 20260510070518 | 12 | 150 | 1.6 | 0.0 | 0.00 | 0.00 | 0.00 | 95 | 1011.6 |
| 20260510070016 | 12 | 190 | 0.0 | 0.0 | 0.00 | 0.00 | 0.00 | 95 | 1011.6 |
| 20260510065515 | 12 | 153 | 1.6 | 0.0 | 0.00 | 0.00 | 0.00 | 94 | 1011.6 |
| 20260510065015 | 12 | 125 | 1.6 | 0.0 | 0.00 | 0.00 | 0.00 | 94 | 1011.6 |
| 20260510064519 | 12 | 127 | 1.6 | 0.0 | 0.00 | 0.00 | 0.00 | 94 | 1011.6 |
| 20260510064014 | 12 | 122 | 1.6 | 0.0 | 0.00 | 0.00 | 0.00 | 94 | 1011.6 |
| 20260510063514 | 12 | 92 | 1.6 | 0.0 | 0.00 | 0.00 | 0.00 | 94 | 1011.6 |
| 20260510063017 | 12 | 88 | 1.6 | 0.0 | 0.00 | 0.00 | 0.00 | 94 | 1011.6 |
| 20260510062513 | 12 | 61 | 1.6 | 0.0 | 0.00 | 0.00 | 0.00 | 94 | 1011.5 |
| 20260510062018 | 12 | 65 | 1.6 | 0.0 | 0.00 | 0.00 | 0.00 | 94 | 1011.5 |
| 20260510061523 | 12 | 54 | 1.6 | 0.0 | 0.00 | 0.00 | 0.00 | 94 | 1011.5 |
| 20260510061014 | 12 | 54 | 1.6 | 0.0 | 0.00 | 0.00 | 0.00 | 94 | 1011.6 |
| 20260510060517 | 12 | 54 | 1.6 | 0.0 | 0.00 | 0.00 | 0.00 | 94 | 1011.6 |
| 20260510060012 | 12 | 115 | 0.0 | 0.0 | 0.00 | 0.00 | 0.00 | 94 | 1011.6 |
| 20260510055512 | 12 | 115 | 0.0 | 0.0 | 0.00 | 0.00 | 0.00 | 94 | 1011.7 |
| 20260510055013 | 12 | 115 | 1.6 | 0.0 | 0.00 | 0.00 | 0.00 | 94 | 1011.7 |
| 20260510054513 | 12 | 130 | 0.0 | 0.0 | 0.00 | 0.00 | 0.00 | 94 | 1011.7 |
| 20260510054012 | 12 | 186 | 0.0 | 0.0 | 0.00 | 0.00 | 0.00 | 94 | 1011.7 |
| 20260510053512 | 12 | 186 | 0.0 | 0.0 | 0.00 | 0.00 | 0.00 | 94 | 1011.7 |
| 20260510053012 | 12 | 186 | 1.6 | 0.0 | 0.00 | 0.00 | 0.00 | 94 | 1011.7 |
| 20260510052512 | 12 | 186 | 1.6 | 0.0 | 0.00 | 0.00 | 0.00 | 94 | 1011.7 |
| 20260510052012 | 12 | 179 | 1.6 | 0.0 | 0.00 | 0.00 | 0.00 | 94 | 1011.7 |
| 20260510051526 | 12 | 179 | 0.0 | 0.0 | 0.00 | 0.00 | 0.00 | 94 | 1011.7 |
| 20260510051012 | 12 | 179 | 0.0 | 0.0 | 0.00 | 0.00 | 0.00 | 94 | 1011.8 |
| 20260510050511 | 12 | 179 | 0.0 | 0.0 | 0.00 | 0.00 | 0.00 | 93 | 1011.8 |
| 20260510050011 | 12 | 179 | 0.0 | 0.0 | 0.00 | 0.00 | 0.00 | 93 | 1011.8 |
| 20260510045515 | 12 | 179 | 1.6 | 0.0 | 0.00 | 0.00 | 0.00 | 93 | 1011.8 |
| 20260510045011 | 12 | 179 | 1.6 | 0.0 | 0.00 | 0.00 | 0.00 | 93 | 1011.8 |
| 20260510044512 | 12 | 211 | 0.0 | 0.0 | 0.00 | 0.00 | 0.00 | 93 | 1011.8 |
| 20260510044011 | 13 | 225 | 0.0 | 0.0 | 0.00 | 0.00 | 0.00 | 93 | 1011.6 |
| 20260510043511 | 13 | 225 | 0.0 | 0.0 | 0.00 | 0.00 | 0.00 | 93 | 1011.6 |
| 20260510043019 | 13 | 225 | 0.0 | 0.0 | 0.00 | 0.00 | 0.00 | 93 | 1011.6 |
| 20260510042511 | 13 | 225 | 0.0 | 0.0 | 0.00 | 0.00 | 0.00 | 93 | 1011.5 |
| 20260510042010 | 13 | 225 | 0.0 | 0.0 | 0.00 | 0.00 | 0.00 | 93 | 1011.5 |
| 20260510041510 | 13 | 225 | 0.0 | 0.0 | 0.00 | 0.00 | 0.00 | 93 | 1011.5 |
| 20260510041010 | 13 | 225 | 0.0 | 0.0 | 0.00 | 0.00 | 0.00 | 92 | 1011.3 |
| 20260510040510 | 13 | 225 | 0.0 | 0.0 | 0.00 | 0.00 | 0.00 | 92 | 1011.3 |
| 20260510040010 | 13 | 225 | 0.0 | 0.0 | 0.00 | 0.00 | 0.00 | 92 | 1011.3 |
| 20260510035509 | 13 | 225 | 0.0 | 0.0 | 0.00 | 0.00 | 0.00 | 92 | 1011.2 |
| 20260510035013 | 13 | 225 | 0.0 | 0.0 | 0.00 | 0.00 | 0.00 | 92 | 1011.2 |
| 20260510034509 | 13 | 225 | 0.0 | 0.0 | 0.00 | 0.00 | 0.00 | 92 | 1011.2 |
| 20260510034012 | 13 | 225 | 0.0 | 0.0 | 0.00 | 0.00 | 0.00 | 92 | 1010.9 |
| 20260510033509 | 13 | 225 | 0.0 | 0.0 | 0.00 | 0.00 | 0.00 | 92 | 1010.9 |
| 20260510033009 | 13 | 225 | 0.0 | 0.0 | 0.00 | 0.00 | 0.00 | 92 | 1010.9 |
| 20260510032512 | 13 | 225 | 0.0 | 0.0 | 0.00 | 0.00 | 0.00 | 91 | 1010.7 |
| 20260510032009 | 13 | 225 | 0.0 | 0.0 | 0.00 | 0.00 | 0.00 | 91 | 1010.7 |
| 20260510031509 | 14 | 225 | 0.0 | 0.0 | 0.00 | 0.00 | 0.00 | 90 | 1010.7 |
| 20260510031009 | 14 | 225 | 1.6 | 0.0 | 0.00 | 0.00 | 0.00 | 90 | 1010.6 |
| 20260510030510 | 14 | 225 | 1.6 | 0.0 | 0.00 | 0.00 | 0.00 | 89 | 1010.6 |
| 20260510030012 | 15 | 203 | 0.0 | 0.0 | 0.00 | 0.00 | 0.00 | 88 | 1010.6 |
| 20260510025508 | 15 | 203 | 1.6 | 0.0 | 0.00 | 0.00 | 0.00 | 88 | 1010.4 |
| 20260510025008 | 15 | 203 | 1.6 | 0.0 | 0.00 | 0.00 | 0.00 | 87 | 1010.4 |
| 20260510024508 | 15 | 200 | 1.6 | 0.0 | 0.00 | 0.00 | 0.00 | 87 | 1010.4 |
| 20260510024009 | 15 | 270 | 0.0 | 0.0 | 0.00 | 0.00 | 0.00 | 86 | 1010.3 |
| 20260510023507 | 16 | 270 | 0.0 | 0.0 | 0.00 | 0.00 | 0.00 | 85 | 1010.3 |
| 20260510023007 | 16 | 270 | 1.6 | 0.0 | 0.00 | 0.00 | 0.00 | 84 | 1010.3 |
| 20260510022511 | 16 | 197 | 1.6 | 0.0 | 0.00 | 0.00 | 0.00 | 83 | 1010.2 |
| 20260510022008 | 17 | 197 | 3.2 | 0.0 | 0.00 | 0.00 | 0.00 | 83 | 1010.2 |
| 20260510021513 | 17 | 227 | 1.6 | 0.0 | 0.00 | 0.00 | 0.00 | 82 | 1010.2 |
| 20260510021007 | 17 | 205 | 1.6 | 0.0 | 0.00 | 0.00 | 0.00 | 82 | 1010.0 |
| 20260510020506 | 17 | 165 | 1.6 | 0.0 | 0.00 | 0.00 | 0.00 | 82 | 1010.0 |
| 20260510020006 | 17 | 165 | 0.0 | 0.0 | 0.00 | 0.00 | 0.00 | 82 | 1009.9 |
| 20260510015508 | 17 | 190 | 1.6 | 0.0 | 0.00 | 0.00 | 0.00 | 82 | 1009.9 |
| 20260510015006 | 17 | 156 | 3.2 | 0.0 | 0.00 | 0.00 | 0.00 | 81 | 1009.9 |
| 20260510014506 | 18 | 175 | 1.6 | 0.0 | 0.00 | 0.00 | 0.00 | 80 | 1009.7 |
| 20260510014006 | 18 | 219 | 1.6 | 0.0 | 0.00 | 0.00 | 0.00 | 79 | 1009.7 |
| 20260510013506 | 18 | 193 | 1.6 | 0.0 | 0.00 | 0.00 | 0.00 | 78 | 1009.7 |
| 20260510013006 | 18 | 169 | 1.6 | 0.0 | 0.00 | 0.00 | 0.00 | 78 | 1009.7 |
| 20260510012505 | 19 | 274 | 1.6 | 0.0 | 0.00 | 0.00 | 0.00 | 78 | 1009.7 |
| 20260510012005 | 19 | 165 | 3.2 | 0.0 | 0.00 | 0.00 | 0.00 | 77 | 1009.7 |
| 20260510011506 | 19 | 180 | 3.2 | 0.0 | 0.00 | 0.00 | 0.00 | 77 | 1009.7 |
| 20260510011005 | 20 | 179 | 3.2 | 0.0 | 0.00 | 0.00 | 0.00 | 76 | 1009.7 |
| 20260510010505 | 20 | 169 | 3.2 | 0.0 | 0.00 | 0.00 | 0.00 | 77 | 1009.7 |
| 20260510010005 | 19 | 168 | 3.2 | 0.0 | 0.00 | 0.00 | 0.00 | 77 | 1009.7 |
| 20260510005505 | 19 | 186 | 3.2 | 0.0 | 0.00 | 0.00 | 0.00 | 77 | 1009.7 |
| 20260510005006 | 19 | 161 | 3.2 | 0.0 | 0.00 | 0.00 | 0.00 | 78 | 1009.7 |
| 20260510004504 | 19 | 164 | 3.2 | 0.0 | 0.00 | 0.00 | 0.00 | 79 | 1009.8 |
| 20260510004007 | 19 | 156 | 3.2 | 0.0 | 0.00 | 0.00 | 0.00 | 80 | 1009.8 |
| 20260510003504 | 19 | 195 | 3.2 | 0.0 | 0.00 | 0.00 | 0.00 | 78 | 1009.8 |
| 20260510003004 | 19 | 153 | 4.8 | 0.0 | 0.00 | 0.00 | 0.00 | 78 | 1009.9 |
| 20260510002505 | 19 | 190 | 4.8 | 0.0 | 0.00 | 0.00 | 0.00 | 77 | 1009.9 |
| 20260510002003 | 20 | 159 | 4.8 | 0.0 | 0.00 | 0.00 | 0.00 | 77 | 1009.9 |
| 20260510001506 | 20 | 200 | 4.8 | 0.0 | 0.00 | 0.00 | 0.00 | 77 | 1009.9 |
| 20260510001003 | 20 | 165 | 3.2 | 0.0 | 0.00 | 0.00 | 0.00 | 76 | 1009.9 |
| 20260510000502 | 20 | 211 | 3.2 | 0.0 | 0.00 | 0.00 | 0.00 | 76 | 1009.9 |
| 20260510000004 | 20 | 126 | 3.2 | 0.0 | 0.00 | 0.00 | 0.00 | 78 | 1010.0 |
| 20260509235501 | 20 | 133 | 3.2 | 0.0 | 0.00 | 0.00 | 0.00 | 77 | 1010.0 |
| 20260509235001 | 20 | 126 | 3.2 | 0.0 | 0.00 | 0.00 | 0.00 | 77 | 1010.0 |
| 20260509234600 | 20 | 180 | 4.8 | 0.0 | 0.00 | 0.00 | 0.00 | 78 | 1010.0 |
| 20260509234100 | 19 | 182 | 4.8 | 0.0 | 0.00 | 0.00 | 0.00 | 78 | 1010.1 |
| 20260509233600 | 19 | 126 | 3.2 | 0.0 | 0.00 | 0.00 | 0.00 | 79 | 1010.1 |
| 20260509233059 | 18 | 136 | 3.2 | 0.0 | 0.00 | 0.00 | 0.00 | 80 | 1010.1 |
| 20260509232600 | 18 | 173 | 3.2 | 0.0 | 0.00 | 0.00 | 0.00 | 80 | 1010.2 |
| 20260509232059 | 18 | 161 | 3.2 | 0.0 | 0.00 | 0.00 | 0.00 | 81 | 1010.2 |
| 20260509231609 | 18 | 188 | 3.2 | 0.0 | 0.00 | 0.00 | 0.00 | 79 | 1010.2 |
| 20260509231059 | 18 | 190 | 3.2 | 0.0 | 0.00 | 0.00 | 0.00 | 80 | 1010.1 |
| 20260509230604 | 18 | 155 | 4.8 | 0.0 | 0.00 | 0.00 | 0.00 | 81 | 1010.1 |
| 20260509230058 | 18 | 156 | 4.8 | 0.0 | 0.00 | 0.00 | 0.00 | 80 | 1010.1 |
| 20260509225558 | 18 | 196 | 4.8 | 0.0 | 0.00 | 0.00 | 0.00 | 80 | 1010.2 |
| 20260509225057 | 19 | 182 | 4.8 | 0.0 | 0.00 | 0.00 | 0.00 | 79 | 1010.2 |
| 20260509224558 | 19 | 213 | 4.8 | 0.0 | 0.00 | 0.00 | 0.00 | 79 | 1010.2 |
| 20260509224056 | 19 | 147 | 3.2 | 0.0 | 0.00 | 0.00 | 0.00 | 80 | 1010.3 |
| 20260509223555 | 19 | 212 | 4.8 | 0.0 | 0.00 | 0.00 | 0.00 | 81 | 1010.3 |
| 20260509223055 | 18 | 192 | 4.8 | 0.0 | 0.00 | 0.00 | 0.00 | 81 | 1010.3 |
| 20260509222552 | 18 | 207 | 4.8 | 0.0 | 0.00 | 0.00 | 0.00 | 82 | 1010.8 |
| 20260509222051 | 18 | 211 | 3.2 | 0.0 | 0.00 | 0.00 | 0.00 | 83 | 1010.8 |
| 20260509221551 | 18 | 166 | 4.8 | 0.0 | 0.00 | 0.00 | 0.00 | 84 | 1010.8 |
| 20260509221052 | 18 | 167 | 4.8 | 0.0 | 0.00 | 0.00 | 0.00 | 84 | 1010.9 |
| 20260509220551 | 17 | 211 | 4.8 | 0.0 | 0.00 | 0.00 | 0.00 | 85 | 1010.9 |
| 20260509220050 | 17 | 184 | 4.8 | 0.0 | 0.00 | 0.00 | 0.00 | 85 | 1010.9 |
| 20260509215554 | 17 | 190 | 4.8 | 0.0 | 0.00 | 0.00 | 0.00 | 84 | 1011.0 |
| 20260509215050 | 17 | 163 | 4.8 | 0.0 | 0.00 | 0.00 | 0.00 | 86 | 1011.0 |
| 20260509214549 | 17 | 181 | 4.8 | 0.0 | 0.00 | 0.00 | 0.00 | 85 | 1011.0 |
| 20260509214053 | 17 | 175 | 6.4 | 0.0 | 0.00 | 0.00 | 0.00 | 84 | 1011.1 |
| 20260509213549 | 18 | 157 | 6.4 | 0.0 | 0.00 | 0.00 | 0.00 | 85 | 1011.1 |
| 20260509213049 | 18 | 131 | 4.8 | 0.0 | 0.00 | 0.00 | 0.00 | 84 | 1011.1 |
| 20260509212548 | 18 | 136 | 4.8 | 0.0 | 0.00 | 0.00 | 0.00 | 84 | 1011.3 |
| 20260509212049 | 18 | 142 | 4.8 | 0.0 | 0.00 | 0.00 | 0.00 | 83 | 1011.3 |
| 20260509211555 | 18 | 160 | 4.8 | 0.0 | 0.00 | 0.00 | 0.00 | 83 | 1011.3 |
| 20260509211048 | 18 | 206 | 4.8 | 0.0 | 0.00 | 0.00 | 0.00 | 83 | 1011.4 |
| 20260509210548 | 18 | 239 | 4.8 | 0.0 | 0.00 | 0.00 | 0.00 | 83 | 1011.4 |
| 20260509210054 | 18 | 212 | 4.8 | 0.0 | 0.00 | 0.00 | 0.00 | 83 | 1011.4 |
| 20260509205545 | 18 | 188 | 4.8 | 0.0 | 0.00 | 0.00 | 0.00 | 84 | 1011.4 |
| 20260509205044 | 18 | 148 | 4.8 | 0.0 | 0.00 | 0.00 | 0.00 | 85 | 1011.4 |
| 20260509204546 | 17 | 175 | 4.8 | 0.0 | 0.00 | 0.00 | 0.00 | 86 | 1011.4 |
| 20260509204044 | 17 | 160 | 4.8 | 0.0 | 0.00 | 0.00 | 0.00 | 85 | 1011.5 |
| 20260509203545 | 17 | 178 | 4.8 | 0.0 | 0.00 | 0.00 | 0.00 | 85 | 1011.5 |
| 20260509203042 | 17 | 164 | 4.8 | 0.0 | 0.00 | 0.00 | 0.00 | 87 | 1011.5 |
| 20260509202541 | 17 | 198 | 4.8 | 0.0 | 0.00 | 0.00 | 0.00 | 88 | 1011.7 |
| 20260509202041 | 17 | 171 | 4.8 | 0.0 | 0.00 | 0.00 | 0.00 | 89 | 1011.7 |
| 20260509201539 | 17 | 181 | 4.8 | 0.0 | 0.00 | 0.00 | 0.00 | 89 | 1011.7 |
| 20260509201037 | 16 | 155 | 4.8 | 0.0 | 0.00 | 0.00 | 0.00 | 90 | 1011.9 |
| 20260509200538 | 16 | 211 | 6.4 | 0.0 | 0.00 | 0.00 | 0.00 | 89 | 1011.9 |
| 20260509200043 | 16 | 153 | 4.8 | 0.0 | 0.00 | 0.00 | 0.00 | 90 | 1011.9 |
| 20260509195538 | 16 | 167 | 4.8 | 0.0 | 0.00 | 0.00 | 0.00 | 90 | 1012.1 |
| 20260509195033 | 16 | 180 | 4.8 | 0.0 | 0.00 | 0.00 | 0.00 | 91 | 1012.1 |
| 20260509194535 | 16 | 161 | 4.8 | 0.0 | 0.00 | 0.00 | 0.00 | 90 | 1012.1 |
| 20260509194035 | 16 | 205 | 4.8 | 0.0 | 0.00 | 0.00 | 0.00 | 91 | 1012.2 |
| 20260509193533 | 16 | 198 | 6.4 | 0.0 | 0.00 | 0.00 | 0.00 | 91 | 1012.2 |
| 20260509193032 | 16 | 159 | 6.4 | 0.0 | 0.00 | 0.00 | 0.00 | 91 | 1012.2 |
| 20260509192531 | 16 | 179 | 6.4 | 0.0 | 0.00 | 0.00 | 0.00 | 92 | 1012.3 |
| 20260509192031 | 16 | 247 | 6.4 | 0.0 | 0.00 | 0.00 | 0.00 | 92 | 1012.3 |
| 20260509191530 | 16 | 169 | 4.8 | 0.0 | 0.00 | 0.00 | 0.00 | 92 | 1012.3 |
| 20260509191033 | 16 | 207 | 4.8 | 0.0 | 0.00 | 0.00 | 0.00 | 93 | 1012.2 |
| 20260509190531 | 16 | 159 | 4.8 | 0.0 | 0.00 | 0.00 | 0.00 | 94 | 1012.2 |
| 20260509190035 | 16 | 151 | 4.8 | 0.0 | 0.00 | 0.00 | 0.00 | 94 | 1012.2 |
| 20260509185531 | 16 | 195 | 4.8 | 0.0 | 0.00 | 0.00 | 0.00 | 94 | 1012.4 |
| 20260509185031 | 15 | 196 | 4.8 | 0.0 | 0.00 | 0.00 | 0.00 | 95 | 1012.4 |
| 20260509184534 | 15 | 204 | 4.8 | 0.0 | 0.00 | 0.00 | 0.00 | 95 | 1012.4 |
| 20260509184027 | 15 | 157 | 4.8 | 0.0 | 0.00 | 0.00 | 0.00 | 95 | 1012.5 |
| 20260509183526 | 15 | 161 | 4.8 | 0.0 | 0.00 | 0.00 | 0.00 | 96 | 1012.5 |
| 20260509183025 | 15 | 139 | 4.8 | 0.0 | 0.00 | 0.00 | 0.00 | 96 | 1012.5 |
| 20260509182524 | 15 | 179 | 4.8 | 0.0 | 0.00 | 0.00 | 0.00 | 96 | 1012.6 |
| 20260509182023 | 15 | 155 | 4.8 | 0.0 | 0.00 | 0.00 | 0.00 | 96 | 1012.6 |
| 20260509181523 | 15 | 175 | 3.2 | 0.0 | 0.00 | 0.00 | 0.00 | 96 | 1012.6 |
| 20260509181023 | 15 | 215 | 3.2 | 0.0 | 0.00 | 0.00 | 0.00 | 96 | 1012.7 |
| 20260509180522 | 14 | 164 | 3.2 | 0.0 | 0.00 | 0.00 | 0.00 | 96 | 1012.7 |
| 20260509180023 | 14 | 118 | 3.2 | 0.0 | 0.00 | 0.00 | 0.00 | 96 | 1012.7 |
| 20260509175518 | 13 | 163 | 3.2 | 0.0 | 0.00 | 0.00 | 0.00 | 96 | 1012.8 |
| 20260509175018 | 13 | 176 | 3.2 | 0.0 | 0.00 | 0.00 | 0.00 | 96 | 1012.8 |
| 20260509174519 | 13 | 183 | 1.6 | 0.0 | 0.00 | 0.00 | 0.00 | 96 | 1012.8 |
| 20260509174017 | 13 | 157 | 1.6 | 0.0 | 0.00 | 0.00 | 0.00 | 96 | 1012.8 |
| 20260509173517 | 13 | 173 | 3.2 | 0.0 | 0.00 | 0.00 | 0.00 | 96 | 1012.8 |
| 20260509173049 | 13 | 165 | 3.2 | 0.0 | 0.00 | 0.00 | 0.00 | 96 | 1012.8 |
| 20260509172517 | 13 | 201 | 3.2 | 0.0 | 0.00 | 0.00 | 0.00 | 96 | 1012.7 |
| 20260509172017 | 13 | 141 | 1.6 | 0.0 | 0.00 | 0.00 | 0.00 | 96 | 1012.7 |
| 20260509171526 | 13 | 174 | 1.6 | 0.0 | 0.00 | 0.00 | 0.00 | 96 | 1012.7 |